Reno, NV

6:22 AM PDT on October 21, 2019 (GMT -0700)
Reno-Tahoe International

Weather History for KRNO - August, 2019

Change the Weather History Date:

Wednesday, August 7, 2019

  Actual Average Record
Temperature  
Mean Temperature 82 °F 75 °F  
Max Temperature 96 °F 93 °F 102 °F (1990)
Min Temperature 68 °F 58 °F 35 °F (1975)
Degree Days  
Heating Degree Days 0 0  
Month to date heating degree days 0 0  
Since 1 June heating degree days 15 61  
Since 1 July heating degree days 0 5  
Cooling Degree Days 17 10  
Month to date cooling degree days 99 73  
Year to date cooling degree days 690 560  
Since 1 June cooling degree days 676 523  
Growing Degree Days 32 (Base 50)    
Moisture  
Dew Point 44 °F    
Average Humidity 28    
Maximum Humidity 44    
Minimum Humidity 13    
Precipitation  
Precipitation 0.00 in 0.01 in 0.33 in (1989)
Month to date precipitation 0.00 0.07  
Year to date precipitation 8.76 4.53  
Snow  
Snow 0.00 in 0.00 in 0.00 in ()
Month to date snowfall 0.0 0.0  
Since 1 June snowfall 0.0 T  
Since 1 July snowfall 0.0 0.0  
Snow Depth 0.00 in    
Sea Level Pressure  
Sea Level Pressure 29.90 in    
Wind  
Wind Speed 6 mph ()    
Max Wind Speed 22 mph    
Max Gust Speed 31 mph    
Visibility 10.0 miles    
Events Thunderstorm    
T = Trace of Precipitation, MM = Missing Value Source: Averaged Metar Reports

Daily Weather History Graph

Daily Weather History Graph

Search for Another Location

Airport or City:

Astronomy

Aug. 07, 2019 Rise Set
Actual Time 6:04 AM PDT 8:05 PM PDT
Civil Twilight 5:34 AM PDT 8:34 PM PDT
Nautical Twilight 4:58 AM PDT 9:10 PM PDT
Astronomical Twilight 4:19 AM PDT 9:49 PM PDT
Moon 1:39 PM PDT (8/7) No Moon Set
Length of Visible Light 14h 59m
Length of Day
14h 00m
Waxing Crescent, 51% of the Moon is Illuminated
Aug 7
Waxing Crescent
Aug 15
Full
Aug 23
Last Quarter
Aug 30
New
Sep 5
First Quarter

Hourly Weather History & Observations

Time (PDT) Temp. Dew Point Humidity Pressure Visibility Wind Dir Wind Speed Gust Speed Precip Events Conditions
12:55 AM 73.9 °F 43.0 °F 33% 29.89 in 10.0 mi SSE 3.5 mph - N/A   Mostly Cloudy
1:55 AM 75.0 °F 43.0 °F 32% 29.88 in 10.0 mi Calm Calm - N/A   Mostly Cloudy
2:55 AM 73.9 °F 50.0 °F 43% 29.89 in 10.0 mi NW 4.6 mph - 0.00 in   Mostly Cloudy
3:55 AM 72.0 °F 48.0 °F 43% 29.91 in 10.0 mi WNW 4.6 mph - N/A   Mostly Cloudy
4:55 AM 72.0 °F 46.9 °F 41% 29.91 in 10.0 mi WSW 4.6 mph - N/A   Mostly Cloudy
5:55 AM 71.1 °F 39.9 °F 32% 29.92 in 10.0 mi WSW 8.1 mph - N/A   Mostly Cloudy
7:55 AM 71.1 °F 42.1 °F 35% 29.94 in 10.0 mi West 3.5 mph - N/A   Scattered Clouds
8:55 AM 77.0 °F 42.1 °F 29% 29.93 in 10.0 mi Calm Calm - N/A   Scattered Clouds
9:55 AM 81.0 °F 41.0 °F 24% 29.91 in 10.0 mi Variable 3.5 mph - N/A   Scattered Clouds
10:55 AM 86.0 °F 41.0 °F 20% 29.90 in 10.0 mi Variable 3.5 mph - N/A   Scattered Clouds
11:55 AM 89.1 °F 41.0 °F 19% 29.87 in 10.0 mi Variable 3.5 mph - N/A   Scattered Clouds
12:55 PM 93.0 °F 39.9 °F 16% 29.86 in 10.0 mi South 15.0 mph 23.0 mph N/A   Mostly Cloudy
1:55 PM 95.0 °F 39.0 °F 14% 29.83 in 10.0 mi SSW 19.6 mph 26.5 mph N/A   Mostly Cloudy
2:55 PM 95.0 °F 37.9 °F 14% 29.81 in 10.0 mi SSW 12.7 mph 21.9 mph N/A   Mostly Cloudy
3:36 PM 93.9 °F 41.0 °F 16% 30.00 in 10.0 mi WSW 16.1 mph 21.9 mph N/A Thunderstorm Thunderstorm
3:55 PM 95.0 °F 41.0 °F 15% 29.79 in 10.0 mi WSW 11.5 mph 24.2 mph N/A Thunderstorm Thunderstorm
4:12 PM 95.0 °F 43.0 °F 17% 29.99 in 10.0 mi West 13.8 mph - N/A   Mostly Cloudy
4:55 PM 90.0 °F 42.1 °F 19% 29.82 in 10.0 mi Variable 6.9 mph 21.9 mph N/A   Mostly Cloudy
5:14 PM 82.9 °F 45.0 °F 26% 30.02 in 10.0 mi SE 16.1 mph 27.6 mph N/A Thunderstorm Overcast
5:30 PM 80.1 °F 46.0 °F 30% 30.03 in 10.0 mi Variable 5.8 mph 17.3 mph N/A   Mostly Cloudy
5:55 PM 79.0 °F 48.9 °F 35% 29.86 in 10.0 mi East 8.1 mph - N/A   Mostly Cloudy
6:55 PM 80.1 °F 46.9 °F 31% 29.88 in 10.0 mi Variable 5.8 mph - N/A   Mostly Cloudy
7:55 PM 78.1 °F 46.0 °F 32% 29.88 in 10.0 mi NNE 5.8 mph - N/A   Mostly Cloudy
8:55 PM 77.0 °F 45.0 °F 32% 29.89 in 10.0 mi North 6.9 mph - N/A   Mostly Cloudy
9:55 PM 75.9 °F 46.9 °F 36% 29.91 in 10.0 mi ESE 12.7 mph - N/A   Mostly Cloudy
10:55 PM 75.0 °F 46.0 °F 36% 29.91 in 10.0 mi East 6.9 mph - N/A   Mostly Cloudy
11:55 PM 73.0 °F 48.0 °F 41% 29.91 in 10.0 mi SSW 4.6 mph - N/A   Scattered Clouds